TimeCET,TemperatureF,Dew PointF,Humidity,Sea Level PressureIn,VisibilityMPH,Wind Direction,Wind SpeedMPH,Gust SpeedMPH,PrecipitationIn,Events,Conditions,WindDirDegrees,DateUTC
12:15 AM,51.8,48.2,88,29.33,5.0,South,13.8,-,N/A,Rain-Thunderstorm,Light Thunderstorms and Rain,180,2012-11-28 23:15:00
12:45 AM,51.8,46.4,82,29.33,5.0,South,12.7,-,N/A,Rain-Thunderstorm,Light Thunderstorms and Rain,170,2012-11-28 23:45:00
1:15 AM,51.8,46.4,82,29.33,5.0,South,15.0,-,N/A,Rain-Thunderstorm,Light Thunderstorms and Rain,170,2012-11-29 00:15:00
1:45 AM,51.8,46.4,82,29.33,5.0,South,10.4,-,N/A,Rain-Thunderstorm,Light Thunderstorms and Rain,190,2012-11-29 00:45:00
2:15 AM,51.8,46.4,82,29.33,5.0,South,25.3,38.0,N/A,Rain-Thunderstorm,Light Thunderstorms and Rain,180,2012-11-29 01:15:00
2:45 AM,51.8,46.4,82,29.33,5.0,SSE,8.1,-,N/A,,Scattered Clouds,160,2012-11-29 01:45:00
3:15 AM,51.8,46.4,82,29.30,5.0,SSE,10.4,-,N/A,,Scattered Clouds,160,2012-11-29 02:15:00
3:45 AM,50.0,46.4,87,29.30,5.0,SSE,11.5,-,N/A,Rain-Thunderstorm,Light Thunderstorms and Rain,150,2012-11-29 02:45:00
4:15 AM,50.0,46.4,87,29.30,5.0,South,15.0,29.9,N/A,Rain-Thunderstorm,Light Thunderstorms and Rain,170,2012-11-29 03:15:00
4:45 AM,50.0,46.4,87,29.30,5.0,South,12.7,-,N/A,Rain-Thunderstorm,Light Thunderstorms and Rain,170,2012-11-29 03:45:00
5:15 AM,50.0,48.2,94,29.30,5.0,SSE,9.2,-,N/A,Rain-Thunderstorm,Light Thunderstorms and Rain,160,2012-11-29 04:15:00
5:45 AM,50.0,46.4,87,29.30,5.0,SSE,16.1,-,N/A,Rain-Thunderstorm,Light Thunderstorms and Rain,150,2012-11-29 04:45:00
6:15 AM,51.8,46.4,82,29.30,3.7,SSE,16.1,-,N/A,Rain,Light Rain,150,2012-11-29 05:15:00
6:45 AM,50.0,48.2,94,29.27,5.0,SSE,10.4,-,N/A,Rain,Light Rain,150,2012-11-29 05:45:00
7:15 AM,51.8,48.2,88,29.27,4.3,SSE,15.0,-,N/A,Rain,Light Rain,150,2012-11-29 06:15:00
7:45 AM,51.8,48.2,88,29.27,5.0,SSE,12.7,-,N/A,Rain,Light Rain,150,2012-11-29 06:45:00
8:15 AM,51.8,48.2,88,29.27,5.0,SSE,10.4,-,N/A,,Partly Cloudy,160,2012-11-29 07:15:00
8:45 AM,53.6,48.2,82,29.27,5.0,SSE,10.4,-,N/A,,Scattered Clouds,150,2012-11-29 07:45:00
9:15 AM,53.6,48.2,82,29.27,5.6,SSE,11.5,-,N/A,,Partly Cloudy,160,2012-11-29 08:15:00
9:45 AM,55.4,48.2,77,29.27,5.6,South,12.7,-,N/A,,Partly Cloudy,170,2012-11-29 08:45:00
10:15 AM,53.6,48.2,82,29.27,3.7,SSW,9.2,-,N/A,Rain-Thunderstorm,Light Thunderstorms and Rain,210,2012-11-29 09:15:00
10:45 AM,51.8,48.2,88,29.27,2.8,South,11.5,-,N/A,Rain-Thunderstorm,Light Thunderstorms and Rain,190,2012-11-29 09:45:00
11:15 AM,50.0,48.2,94,29.27,5.0,South,8.1,-,N/A,Rain-Thunderstorm,Light Thunderstorms and Rain,180,2012-11-29 10:15:00
11:45 AM,51.8,48.2,88,29.27,2.8,South,9.2,-,N/A,Rain-Thunderstorm,Light Thunderstorms and Rain,190,2012-11-29 10:45:00
12:15 PM,51.8,48.2,88,29.27,3.1,South,17.3,28.8,N/A,Rain,Rain,190,2012-11-29 11:15:00
12:45 PM,51.8,48.2,88,29.27,4.3,SSE,15.0,-,N/A,Rain,Light Rain,160,2012-11-29 11:45:00
1:15 PM,53.6,50.0,88,29.24,3.1,South,13.8,-,N/A,Rain,Light Rain,180,2012-11-29 12:15:00
1:45 PM,51.8,48.2,88,29.24,3.1,SSW,10.4,-,N/A,Rain,Light Rain,200,2012-11-29 12:45:00
2:15 PM,53.6,48.2,82,29.24,3.7,South,20.7,34.5,N/A,Rain-Thunderstorm,Light Thunderstorms and Rain,190,2012-11-29 13:15:00
2:45 PM,53.6,48.2,82,29.21,3.7,South,13.8,-,N/A,Rain,Light Rain,170,2012-11-29 13:45:00
3:15 PM,53.6,48.2,82,29.21,1.9,SSW,18.4,34.5,N/A,Rain,Rain,200,2012-11-29 14:15:00
3:45 PM,53.6,50.0,88,29.24,3.7,SSW,11.5,-,N/A,Rain,Light Rain,210,2012-11-29 14:45:00
4:15 PM,53.6,50.0,88,29.24,4.3,SSW,10.4,-,N/A,Rain,Light Rain,200,2012-11-29 15:15:00
4:45 PM,53.6,50.0,88,29.24,3.7,SSW,12.7,-,N/A,Rain,Light Rain,210,2012-11-29 15:45:00
5:15 PM,53.6,50.0,88,29.24,4.3,SW,15.0,38.0,N/A,Rain,Light Rain,220,2012-11-29 16:15:00
5:45 PM,51.8,50.0,94,29.24,2.5,SW,11.5,-,N/A,Rain,Light Rain,230,2012-11-29 16:45:00
6:15 PM,50.0,48.2,94,29.24,3.1,South,9.2,-,N/A,Rain,Light Rain,190,2012-11-29 17:15:00
6:45 PM,50.0,48.2,94,29.24,4.3,South,4.6,-,N/A,Rain,Light Rain,170,2012-11-29 17:45:00
7:15 PM,50.0,48.2,94,29.27,5.0,South,5.8,-,N/A,Rain,Light Rain,170,2012-11-29 18:15:00
7:45 PM,50.0,48.2,94,29.27,5.0,South,5.8,-,N/A,,Scattered Clouds,170,2012-11-29 18:45:00
8:15 PM,50.0,48.2,94,29.27,5.0,South,5.8,-,N/A,,Scattered Clouds,170,2012-11-29 19:15:00
8:45 PM,51.8,50.0,94,29.27,5.0,South,6.9,-,N/A,,Scattered Clouds,170,2012-11-29 19:45:00
9:15 PM,51.8,50.0,94,29.30,5.0,South,9.2,-,N/A,,Scattered Clouds,190,2012-11-29 20:15:00
9:45 PM,51.8,50.0,94,29.33,5.0,SSW,9.2,-,N/A,,Scattered Clouds,200,2012-11-29 20:45:00
10:15 PM,51.8,50.0,94,29.33,5.0,South,5.8,-,N/A,,Scattered Clouds,180,2012-11-29 21:15:00
10:45 PM,51.8,50.0,94,29.33,5.0,South,10.4,-,N/A,,Scattered Clouds,180,2012-11-29 21:45:00
11:15 PM,51.8,50.0,94,29.33,5.0,SSW,11.5,-,N/A,Rain,Light Rain,200,2012-11-29 22:15:00
11:45 PM,51.8,50.0,94,29.33,5.0,SSW,9.2,-,N/A,,Mostly Cloudy,200,2012-11-29 22:45:00